Estación de Nogales

Ultimos registro cada 15 minutos 36
Estación Fecha / Hora Temperatura Humedad Lluvia Velocidad Dirección Radiación Presion
36 Nogales 01-09-2026 08:45 10,1 96,9 0 0 338 294,4 991,2
35 Nogales 01-09-2026 08:30 9,3 97,3 0 0 338 85,6 991,1
34 Nogales 01-09-2026 08:15 8,5 97,4 0 0 338 104,4 991
33 Nogales 01-09-2026 08:00 7,6 97,4 0 0 338 68,1 990,8
32 Nogales 01-09-2026 07:45 7,2 97,4 0 0 338 38,1 990,4
31 Nogales 01-09-2026 07:30 6,6 97,4 0 0 338 21,9 990,1
30 Nogales 01-09-2026 07:15 6,4 97,2 0 0 338 5,6 990,3
29 Nogales 01-09-2026 07:00 6,4 97,3 0 0 338 1,9 990,4
28 Nogales 01-09-2026 06:45 6,4 97,2 0 0 338 0,6 990,5
27 Nogales 01-09-2026 06:30 6,3 97,1 0 0 338 0,6 990,6
26 Nogales 01-09-2026 06:15 6,2 97,2 0 0 338 0,6 990,2
25 Nogales 01-09-2026 06:00 5,8 96,8 0 0 338 0,6 990,2
24 Nogales 01-09-2026 05:45 5,9 96,9 0 0 338 0,6 989,9
23 Nogales 01-09-2026 05:30 5,9 96,9 0 0 338 0,6 990
22 Nogales 01-09-2026 05:15 5,5 96,7 0 0 338 0,6 990,3
21 Nogales 01-09-2026 05:00 5,3 96,7 0 0 331 0,6 990,3
20 Nogales 01-09-2026 04:45 5,2 96,4 0 0 331 0,6 990,3
19 Nogales 01-09-2026 04:30 5,5 96,2 0 0 331 0,6 990,2
18 Nogales 01-09-2026 04:15 5,6 96,3 0 0 331 0,6 990,3
17 Nogales 01-09-2026 04:00 5,6 96,1 0 0 331 0,6 990,5
16 Nogales 01-09-2026 03:45 6 95,9 0 0 331 0,6 990,5
15 Nogales 01-09-2026 03:30 6,1 95,8 0 0 331 0,6 990,8
14 Nogales 01-09-2026 03:15 6,2 95,5 0 0 331 0,6 991,2
13 Nogales 01-09-2026 03:00 6,6 95,4 0 0 331 0,6 991,3
12 Nogales 01-09-2026 02:45 6,9 95,5 0 0 331 0,6 991,4
11 Nogales 01-09-2026 02:30 6,7 95 0 0 330 0,6 991,6
10 Nogales 01-09-2026 02:15 7 94,5 0 0 330 0,6 991,4
9 Nogales 01-09-2026 02:00 7,3 94,2 0 0 330 0,6 991,4
8 Nogales 01-09-2026 01:45 8 94,1 0 0 330 0,6 991,7
7 Nogales 01-09-2026 01:30 8,2 94,3 0 0 330 0,6 992
6 Nogales 01-09-2026 01:15 8,3 93,4 0 0 330 0,6 992,3
5 Nogales 01-09-2026 01:00 8,6 93,5 0 0 330 0,6 992,5
4 Nogales 01-09-2026 00:45 8,6 93,7 0 0 330 0,6 992,5
3 Nogales 01-09-2026 00:30 8,4 93,2 0 0 330 0,6 992,3
2 Nogales 01-09-2026 00:15 8,2 92,3 0 0 330 0,6 992,2
1 Nogales 01-09-2026 00:00 8,9 92,1 0 0 330 0,6 992,2